Weather History for KBIE - December, 2009

Change the Weather History Date:

Tuesday, December 22, 2009

  Actual Average Record
Temperature  
Mean Temperature 24 °F -  
Max Temperature 30 °F 38 °F 58 °F (1965)
Min Temperature 19 °F 20 °F -21 °F (1983)
Degree Days  
Heating Degree Days 40    
Moisture  
Dew Point 27 °F    
Average Humidity 96    
Maximum Humidity 100    
Minimum Humidity 86    
Precipitation  
Precipitation 0.00 in - - ()
Sea Level Pressure  
Sea Level Pressure 29.91 in    
Wind  
Wind Speed 5 mph (NNE)    
Max Wind Speed 14 mph    
Max Gust Speed 18 mph    
Visibility 2 miles    
Events      
Averages and records for this station are not official NWS values.
T = Trace of Precipitation, MM = Missing Value Source: NWS Daily Summary

Daily Weather History Graph

Daily Weather History Graph

Search for Another Location

Airport or City:

Trip Planner

Search our weather history database for the weather conditions in past years. The results will help you decide how hot, cold, wet, or windy it might be!

Date:

Astronomy

Dec. 22, 2009 Rise Set
Actual Time 7:46 AM CST 5:04 PM CST
Civil Twilight 7:16 AM CST 5:35 PM CST
Nautical Twilight 6:41 AM CST 6:09 PM CST
Astronomical Twilight 6:08 AM CST 6:42 PM CST
Moon 11:12 AM CST (12/22) 11:07 PM CST (12/22)
Length of Visible Light 10h 19m
Length of Day
9h 17m
Waxing Crescent, 31% of the Moon is Illuminated
Dec 22
Waxing Crescent
Dec 24
First Quarter
Dec 31
Full
Jan 7
Last Quarter
Jan 15
New

Hourly Weather History & Observations

Time (CST) Temp. Windchill Dew Point Humidity Pressure Visibility Wind Dir Wind Speed Gust Speed Precip Events Conditions
12:10 AM 28.8 °F - 26.6 °F 92% 29.88 in 7.0 mi Calm Calm - N/A   Clear
12:30 AM 30.2 °F - 26.6 °F 86% 29.87 in 7.0 mi Calm Calm - N/A   Clear
12:50 AM 28.4 °F - 26.6 °F 93% 29.87 in 5.0 mi Calm Calm - N/A   Clear
1:10 AM 27.3 °F 23.4 °F 25.5 °F 93% 29.86 in 5.0 mi ESE 3.5 mph - N/A   Clear
1:30 AM 27.0 °F 23.0 °F 25.7 °F 95% 29.85 in 5.0 mi ESE 3.5 mph - N/A   Clear
1:50 AM 28.4 °F - 26.8 °F 94% 29.85 in 5.0 mi Calm Calm - N/A   Clear
2:10 AM 24.4 °F 15.6 °F 22.8 °F 94% 29.87 in 4.0 mi NW 8.1 mph - N/A   Clear
2:30 AM 24.3 °F 16.3 °F 23.2 °F 96% 29.88 in 4.0 mi NW 6.9 mph - N/A   Clear
2:50 AM 23.0 °F - 22.1 °F 96% 29.88 in 4.0 mi Calm Calm - N/A   Clear
3:10 AM 24.1 °F - 23.2 °F 96% 29.89 in 4.0 mi Calm Calm - N/A   Clear
3:30 AM 22.5 °F - 21.4 °F 96% 29.88 in 2.5 mi Calm Calm - N/A   Clear
3:50 AM 20.1 °F 15.2 °F 19.0 °F 96% 29.88 in 3.0 mi North 3.5 mph - N/A   Clear
4:10 AM 19.4 °F 14.3 °F 18.1 °F 95% 29.88 in 4.0 mi WNW 3.5 mph - N/A   Scattered Clouds
4:30 AM 20.8 °F 16.0 °F 19.6 °F 95% 29.88 in 4.0 mi WNW 3.5 mph - N/A   Mostly Cloudy
4:50 AM 23.7 °F - 22.8 °F 96% 29.88 in 4.0 mi Calm Calm - N/A   Overcast
5:10 AM 25.3 °F 19.7 °F 24.4 °F 96% 29.88 in 3.0 mi NNW 4.6 mph - N/A   Overcast
5:30 AM 27.5 °F 20.2 °F 26.6 °F 96% 29.88 in 2.5 mi North 6.9 mph - N/A   Overcast
5:50 AM 27.9 °F 21.5 °F 27.1 °F 97% 29.88 in 2.5 mi North 5.8 mph - N/A   Overcast
6:10 AM 28.4 °F 23.3 °F 27.7 °F 97% 29.89 in 2.5 mi North 4.6 mph - N/A   Overcast
6:30 AM 28.8 °F 25.0 °F 27.9 °F 96% 29.91 in 3.0 mi North 3.5 mph - N/A   Overcast
6:50 AM 28.4 °F 22.2 °F 27.3 °F 96% 29.90 in 3.0 mi North 5.8 mph - N/A   Overcast
7:10 AM 28.4 °F 22.2 °F 27.5 °F 96% 29.91 in 3.0 mi North 5.8 mph - N/A   Overcast
7:30 AM 28.4 °F 22.2 °F 27.5 °F 96% 29.91 in 3.0 mi North 5.8 mph - N/A   Overcast
7:50 AM 28.4 °F 21.2 °F 27.1 °F 95% 29.91 in 3.0 mi North 6.9 mph - N/A   Overcast
8:10 AM 28.4 °F 20.4 °F 27.3 °F 96% 29.92 in 2.0 mi NNE 8.1 mph - N/A   Overcast
8:30 AM 28.4 °F 21.2 °F 27.3 °F 96% 29.93 in 1.8 mi North 6.9 mph - N/A   Overcast
8:50 AM 28.4 °F 21.2 °F 27.3 °F 96% 29.93 in 1.8 mi NNE 6.9 mph - N/A   Overcast
9:10 AM 28.4 °F 22.2 °F 27.3 °F 96% 29.94 in 1.8 mi North 5.8 mph - N/A   Overcast
9:30 AM 28.9 °F 21.1 °F 27.9 °F 96% 29.93 in 1.8 mi NNE 8.1 mph - N/A   Overcast
9:50 AM 28.4 °F 20.4 °F 28.4 °F 100% 29.95 in 1.5 mi North 8.1 mph - N/A   Overcast
10:10 AM 28.9 °F 21.9 °F 27.9 °F 96% 29.95 in 2.0 mi NNE 6.9 mph - N/A   Overcast
10:30 AM 29.1 °F 20.0 °F 27.7 °F 94% 29.95 in 2.0 mi NNE 10.4 mph - N/A   Overcast
10:50 AM 28.4 °F 18.5 °F 28.4 °F 100% 29.94 in 2.0 mi NNE 11.5 mph - N/A   Overcast
11:10 AM 29.1 °F 20.6 °F 27.5 °F 94% 29.95 in 2.5 mi NNE 9.2 mph - N/A   Overcast
11:30 AM 28.9 °F 20.4 °F 27.5 °F 94% 29.95 in 2.0 mi NNE 9.2 mph - N/A   Overcast
11:50 AM 28.6 °F 19.3 °F 27.7 °F 96% 29.95 in 1.5 mi NNE 10.4 mph - N/A   Overcast
12:10 PM 28.8 °F 18.4 °F 27.7 °F 96% 29.93 in 1.5 mi NNE 12.7 mph - N/A   Overcast
12:30 PM 28.9 °F 19.2 °F 28.0 °F 96% 29.93 in 1.0 mi NNE 11.5 mph - N/A   Overcast
12:50 PM 28.4 °F 19.1 °F 28.4 °F 100% 29.93 in 1.8 mi NE 10.4 mph - N/A   Overcast
1:10 PM 29.1 °F 19.4 °F 28.2 °F 96% 29.93 in 1.5 mi NNE 11.5 mph 16.1 mph N/A   Overcast
1:30 PM 28.9 °F 19.8 °F 28.2 °F 97% 29.93 in 1.0 mi NE 10.4 mph - N/A   Overcast
1:50 PM 29.3 °F 19.1 °F 28.4 °F 96% 29.92 in 1.0 mi NE 12.7 mph - N/A   Overcast
2:10 PM 29.8 °F 20.9 °F 29.1 °F 97% 29.93 in 1.2 mi NE 10.4 mph - N/A   Overcast
2:30 PM 29.8 °F 20.3 °F 29.1 °F 97% 29.93 in 1.2 mi NNE 11.5 mph - N/A   Overcast
2:50 PM 29.8 °F 20.3 °F 29.1 °F 97% 29.93 in 0.8 mi NNE 11.5 mph - N/A   Overcast
3:10 PM 30.0 °F 21.7 °F 29.3 °F 97% 29.92 in 0.8 mi NE 9.2 mph - N/A   Overcast
3:30 PM 30.0 °F 21.1 °F 29.3 °F 97% 29.93 in 0.8 mi NE 10.4 mph - N/A   Overcast
3:50 PM 30.2 °F 20.2 °F 29.5 °F 97% 29.92 in 1.0 mi NE 12.7 mph 16.1 mph N/A   Overcast
4:10 PM 30.0 °F 21.1 °F 29.3 °F 97% 29.93 in 0.8 mi NE 10.4 mph 17.3 mph N/A   Overcast
4:30 PM 30.0 °F 21.1 °F 29.3 °F 97% 29.94 in 0.8 mi NE 10.4 mph - N/A   Overcast
4:50 PM 30.0 °F 21.7 °F 29.3 °F 97% 29.93 in 0.8 mi NE 9.2 mph - N/A   Overcast
5:10 PM 29.8 °F 21.5 °F 29.3 °F 98% 29.93 in 1.2 mi NE 9.2 mph - N/A   Overcast
5:30 PM 29.8 °F 19.8 °F 29.3 °F 98% 29.93 in 1.2 mi NE 12.7 mph 16.1 mph N/A   Overcast
5:50 PM 30.0 °F 19.5 °F 29.3 °F 97% 29.93 in 1.2 mi NE 13.8 mph - N/A   Overcast
6:10 PM 29.8 °F 19.8 °F 29.3 °F 98% 29.93 in 1.0 mi NE 12.7 mph - N/A   Overcast
6:30 PM 30.2 °F 20.8 °F 29.8 °F 99% 29.94 in 1.2 mi NE 11.5 mph 18.4 mph N/A   Overcast
6:50 PM 30.2 °F 21.9 °F 29.8 °F 99% 29.95 in 1.2 mi ENE 9.2 mph 17.3 mph N/A   Overcast
7:10 PM 30.2 °F 22.6 °F 29.8 °F 99% 29.96 in 1.2 mi NE 8.1 mph - N/A   Overcast
7:30 PM 30.6 °F 21.8 °F 30.0 °F 98% 29.96 in 1.2 mi ENE 10.4 mph - N/A   Overcast
7:50 PM 30.7 °F 22.6 °F 30.2 °F 98% 29.97 in 1.2 mi ENE 9.2 mph - N/A   Overcast
8:10 PM 30.9 °F 21.7 °F 30.2 °F 97% 29.96 in 1.5 mi NE 11.5 mph - N/A   Overcast
8:30 PM 30.9 °F 22.2 °F 30.2 °F 97% 29.95 in 1.5 mi ENE 10.4 mph - N/A   Overcast
8:50 PM 30.9 °F 23.5 °F 30.4 °F 98% 29.95 in 1.5 mi ENE 8.1 mph - N/A   Overcast
9:10 PM 31.1 °F 23.7 °F 30.6 °F 98% 29.96 in 1.5 mi ENE 8.1 mph - N/A   Overcast
9:30 PM 31.1 °F 23.1 °F 30.6 °F 98% 29.95 in 2.0 mi NE 9.2 mph - N/A   Overcast
9:50 PM 31.1 °F 23.1 °F 30.7 °F 99% 29.95 in 2.0 mi NE 9.2 mph - N/A   Overcast
10:10 PM 31.3 °F 24.7 °F 30.9 °F 99% 29.96 in 2.0 mi ENE 6.9 mph - N/A   Overcast
10:30 PM 31.5 °F 24.2 °F 30.9 °F 98% 29.96 in 2.0 mi NE 8.1 mph - N/A   Overcast
10:50 PM 31.5 °F 24.2 °F 30.9 °F 98% 29.95 in 2.0 mi NE 8.1 mph - N/A   Overcast
11:10 PM 31.5 °F 22.9 °F 30.9 °F 98% 29.95 in 1.8 mi NE 10.4 mph - N/A   Overcast
11:30 PM 31.5 °F 24.9 °F 30.9 °F 98% 29.95 in 1.5 mi ENE 6.9 mph - N/A   Overcast
11:50 PM 31.5 °F 24.2 °F 31.1 °F 99% 29.94 in 1.2 mi NE 8.1 mph - N/A   Overcast